• In Latvia
  • List of Countries
  • For 7 days
  • Water Temperature
  • Satellite Maps
  • Weather Map
  • Weather Widgets
  • user-avatar
    Login

    Hourly Weather Salta

    Today, 17 January, Tuesday

    Time Temperature Precipitation Wind Pressure Humidity
    00:00 +23°C° 0.1 mm 1 mps 651 mmHg 81%
    01:00 +22°C° 0.1 mm 1 mps 651 mmHg 82%
    02:00 +22°C° 0.1 mm 1 mps 650 mmHg 82%
    03:00 +22°C° 0.1 mm 1 mps 650 mmHg 82%
    04:00 +22°C° 0.1 mm 1 mps 650 mmHg 81%
    05:00 +22°C° 0.1 mm 1 mps 650 mmHg 81%
    06:00 +23°C° 0.1 mm 1 mps 651 mmHg 76%
    07:00 +24°C° 0.1 mm 1 mps 652 mmHg 71%
    08:00 +25°C° 0.1 mm 1 mps 653 mmHg 65%
    09:00 +27°C° 0.1 mm 1 mps 653 mmHg 60%
    10:00 +28°C° 0.1 mm 2 mps 653 mmHg 55%
    11:00 +29°C° 0.1 mm 2 mps 653 mmHg 50%
    12:00 +30°C° 0.5 mm 3 mps 653 mmHg 49%
    13:00 +31°C° 0.5 mm 3 mps 652 mmHg 48%
    14:00 +31°C° 0.5 mm 3 mps 652 mmHg 47%
    15:00 +31°C° 0.7 mm 3 mps 651 mmHg 48%
    16:00 +30°C° 0.7 mm 3 mps 650 mmHg 49%
    17:00 +30°C° 0.7 mm 3 mps 650 mmHg 51%
    18:00 +28°C° 0.3 mm 2 mps 650 mmHg 56%
    19:00 +27°C° 0.3 mm 2 mps 650 mmHg 61%
    20:00 +25°C° 0.3 mm 1 mps 651 mmHg 65%
    21:00 +25°C° 0.1 mm 1 mps 651 mmHg 67%
    22:00 +24°C° 0.1 mm 1 mps 651 mmHg 69%
    23:00 +24°C° 0.1 mm 1 mps 652 mmHg 71%

    Tomorrow, 18 January, Wednesday

    Time Temperature Precipitation Wind Pressure Humidity
    00:00 +23°C° 0 mm 1 mps 652 mmHg 72%
    01:00 +23°C° 0 mm 1 mps 651 mmHg 73%
    02:00 +22°C° 0 mm 1 mps 651 mmHg 74%
    03:00 +22°C° 0 mm 1 mps 651 mmHg 76%
    04:00 +20°C° 0 mm 0 mps 651 mmHg 77%
    05:00 +19°C° 0 mm 0 mps 651 mmHg 78%
    06:00 +23°C° 0 mm 1 mps 652 mmHg 72%
    07:00 +24°C° 0 mm 1 mps 652 mmHg 65%
    08:00 +26°C° 0 mm 1 mps 653 mmHg 59%
    09:00 +27°C° 0 mm 1 mps 653 mmHg 54%
    10:00 +28°C° 0 mm 2 mps 654 mmHg 50%
    11:00 +30°C° 0 mm 2 mps 654 mmHg 46%
    12:00 +30°C° 0.1 mm 3 mps 654 mmHg 45%
    13:00 +30°C° 0.1 mm 3 mps 653 mmHg 44%
    14:00 +31°C° 0.1 mm 3 mps 653 mmHg 43%
    15:00 +30°C° 0.1 mm 3 mps 652 mmHg 44%
    16:00 +30°C° 0.1 mm 3 mps 652 mmHg 45%
    17:00 +30°C° 0.1 mm 2 mps 651 mmHg 46%
    18:00 +28°C° 0 mm 2 mps 651 mmHg 53%
    19:00 +26°C° 0 mm 1 mps 651 mmHg 60%
    20:00 +24°C° 0 mm 1 mps 651 mmHg 66%
    21:00 +24°C° 0.1 mm 1 mps 652 mmHg 67%
    22:00 +23°C° 0.1 mm 1 mps 652 mmHg 68%
    23:00 +23°C° 0.1 mm 1 mps 653 mmHg 70%

    Day after tomorrow, 19 January, Thursday

    Time Temperature Precipitation Wind Pressure Humidity
    00:00 +23°C° 0.1 mm 1 mps 652 mmHg 70%
    01:00 +22°C° 0.1 mm 1 mps 652 mmHg 71%
    02:00 +22°C° 0.1 mm 1 mps 652 mmHg 72%
    03:00 +22°C° 0 mm 1 mps 651 mmHg 73%
    04:00 +22°C° 0 mm 1 mps 651 mmHg 74%
    05:00 +21°C° 0 mm 1 mps 651 mmHg 75%
    06:00 +23°C° 0 mm 1 mps 652 mmHg 68%
    07:00 +24°C° 0 mm 1 mps 653 mmHg 62%
    08:00 +26°C° 0 mm 1 mps 653 mmHg 56%
    09:00 +27°C° 0 mm 2 mps 654 mmHg 49%
    10:00 +29°C° 0 mm 2 mps 654 mmHg 42%
    11:00 +30°C° 0 mm 3 mps 654 mmHg 35%
    12:00 +31°C° 0 mm 3 mps 654 mmHg 33%
    13:00 +33°C° 0 mm 4 mps 653 mmHg 31%
    14:00 +34°C° 0 mm 4 mps 653 mmHg 30%
    15:00 +34°C° 0 mm 4 mps 653 mmHg 30%
    16:00 +33°C° 0 mm 4 mps 653 mmHg 30%
    17:00 +33°C° 0 mm 4 mps 652 mmHg 31%
    18:00 +30°C° 0 mm 3 mps 652 mmHg 38%
    19:00 +27°C° 0 mm 2 mps 652 mmHg 44%
    20:00 +25°C° 0 mm 1 mps 652 mmHg 51%
    21:00 +25°C° 0 mm 1 mps 653 mmHg 51%
    22:00 +24°C° 0 mm 1 mps 653 mmHg 51%
    23:00 +24°C° 0 mm 1 mps 654 mmHg 51%

    20 January, Friday

    Time Temperature Precipitation Wind Pressure Humidity
    00:00 +23°C° 0 mm 1 mps 653 mmHg 52%
    01:00 +23°C° 0 mm 1 mps 653 mmHg 53%
    02:00 +22°C° 0 mm 1 mps 653 mmHg 54%
    03:00 +22°C° 0 mm 1 mps 653 mmHg 55%
    04:00 +22°C° 0 mm 1 mps 653 mmHg 56%
    05:00 +21°C° 0 mm 1 mps 653 mmHg 56%
    06:00 +23°C° 0 mm 1 mps 654 mmHg 51%
    07:00 +25°C° 0 mm 1 mps 655 mmHg 46%
    08:00 +26°C° 0 mm 1 mps 656 mmHg 41%
    09:00 +28°C° 0 mm 1 mps 656 mmHg 37%
    10:00 +29°C° 0 mm 2 mps 656 mmHg 34%
    11:00 +31°C° 0 mm 2 mps 656 mmHg 30%
    12:00 +32°C° 0 mm 2 mps 656 mmHg 29%
    13:00 +34°C° 0 mm 2 mps 655 mmHg 27%
    14:00 +34°C° 0 mm 3 mps 655 mmHg 25%
    15:00 +34°C° 0 mm 3 mps 655 mmHg 25%
    16:00 +34°C° 0 mm 3 mps 654 mmHg 26%
    17:00 +34°C° 0 mm 3 mps 654 mmHg 27%
    18:00 +30°C° 0 mm 2 mps 654 mmHg 34%
    19:00 +27°C° 0 mm 2 mps 653 mmHg 41%
    20:00 +24°C° 0 mm 1 mps 653 mmHg 47%
    21:00 +24°C° 0 mm 1 mps 653 mmHg 48%
    22:00 +23°C° 0 mm 1 mps 654 mmHg 49%
    23:00 +23°C° 0 mm 1 mps 654 mmHg 50%

    21 January, Saturday

    Time Temperature Precipitation Wind Pressure Humidity
    00:00 +22°C° 0 mm 1 mps 653 mmHg 51%
    01:00 +22°C° 0 mm 1 mps 653 mmHg 51%
    02:00 +21°C° 0 mm 1 mps 652 mmHg 52%
    03:00 +21°C° 0 mm 1 mps 652 mmHg 53%
    04:00 +20°C° 0 mm 1 mps 652 mmHg 54%
    05:00 +20°C° 0 mm 1 mps 652 mmHg 54%
    06:00 +22°C° 0 mm 1 mps 653 mmHg 48%
    07:00 +25°C° 0 mm 1 mps 654 mmHg 41%
    08:00 +27°C° 0 mm 1 mps 655 mmHg 34%
    09:00 +29°C° 0 mm 1 mps 655 mmHg 31%
    10:00 +30°C° 0 mm 2 mps 655 mmHg 28%
    11:00 +32°C° 0 mm 2 mps 655 mmHg 25%
    12:00 +34°C° 0 mm 3 mps 655 mmHg 24%
    13:00 +35°C° 0 mm 3 mps 654 mmHg 23%
    14:00 +35°C° 0 mm 3 mps 654 mmHg 21%
    15:00 +35°C° 0 mm 3 mps 654 mmHg 22%
    16:00 +35°C° 0 mm 3 mps 653 mmHg 23%
    17:00 +35°C° 0 mm 4 mps 653 mmHg 24%
    18:00 +31°C° 0 mm 3 mps 652 mmHg 31%
    19:00 +28°C° 0 mm 2 mps 652 mmHg 37%
    20:00 +25°C° 0 mm 1 mps 652 mmHg 44%
    21:00 +25°C° 0 mm 1 mps 652 mmHg 44%
    22:00 +24°C° 0 mm 1 mps 653 mmHg 44%
    23:00 +24°C° 0 mm 2 mps 653 mmHg 44%

    22 January, Sunday

    Time Temperature Precipitation Wind Pressure Humidity
    00:00 +24°C° 0 mm 2 mps 653 mmHg 45%
    01:00 +23°C° 0 mm 1 mps 653 mmHg 45%
    02:00 +23°C° 0 mm 1 mps 652 mmHg 45%
    03:00 +23°C° 0 mm 1 mps 652 mmHg 46%
    04:00 +22°C° 0 mm 1 mps 652 mmHg 48%
    05:00 +22°C° 0 mm 1 mps 652 mmHg 49%
    06:00 +24°C° 0 mm 1 mps 652 mmHg 44%
    07:00 +26°C° 0 mm 1 mps 653 mmHg 39%
    08:00 +28°C° 0 mm 1 mps 654 mmHg 34%
    09:00 +30°C° 0 mm 1 mps 655 mmHg 31%
    10:00 +31°C° 0 mm 2 mps 655 mmHg 29%
    11:00 +34°C° 0 mm 2 mps 655 mmHg 26%
    12:00 +34°C° 0 mm 2 mps 654 mmHg 25%
    13:00 +35°C° 0 mm 3 mps 654 mmHg 25%
    14:00 +36°C° 0 mm 3 mps 653 mmHg 24%
    15:00 +35°C° 0 mm 3 mps 653 mmHg 26%
    16:00 +34°C° 0 mm 3 mps 652 mmHg 27%
    17:00 +34°C° 0 mm 4 mps 652 mmHg 29%
    18:00 +30°C° 0 mm 3 mps 652 mmHg 36%
    19:00 +28°C° 0 mm 2 mps 652 mmHg 42%
    20:00 +26°C° 0 mm 1 mps 652 mmHg 49%
    21:00 +25°C° 0 mm 1 mps 652 mmHg 51%
    22:00 +25°C° 0 mm 1 mps 653 mmHg 52%
    23:00 +24°C° 0 mm 1 mps 653 mmHg 54%
    Show more